TimeCDT,TemperatureF,Dew PointF,Humidity,Sea Level PressureIn,VisibilityMPH,Wind Direction,Wind SpeedMPH,Gust SpeedMPH,PrecipitationIn,Events,Conditions,WindDirDegrees,DateUTC
12:15 AM,76.3,75.9,99,30.04,10.0,Calm,Calm,-,N/A,,Clear,0,2013-09-12 05:15:00
12:35 AM,76.5,75.4,96,30.04,10.0,Calm,Calm,-,N/A,,Clear,0,2013-09-12 05:35:00
12:55 AM,76.3,75.2,96,30.04,10.0,Calm,Calm,-,N/A,,Clear,0,2013-09-12 05:55:00
1:15 AM,75.9,75.0,97,30.03,10.0,Calm,Calm,-,N/A,,Clear,0,2013-09-12 06:15:00
1:35 AM,75.6,75.0,98,30.04,10.0,Calm,Calm,-,N/A,,Clear,0,2013-09-12 06:35:00
1:55 AM,75.4,75.0,99,30.04,10.0,Calm,Calm,-,N/A,,Clear,0,2013-09-12 06:55:00
2:15 AM,76.1,75.0,96,30.04,10.0,Calm,Calm,-,N/A,,Clear,0,2013-09-12 07:15:00
2:35 AM,75.6,74.8,98,30.04,10.0,Calm,Calm,-,N/A,,Clear,0,2013-09-12 07:35:00
2:55 AM,75.2,74.7,98,30.04,10.0,Calm,Calm,-,N/A,,Clear,0,2013-09-12 07:55:00
3:15 AM,74.5,74.1,99,30.04,10.0,North,4.6,-,N/A,,Clear,350,2013-09-12 08:15:00
3:35 AM,74.3,74.1,99,30.03,10.0,North,3.5,-,N/A,,Clear,10,2013-09-12 08:35:00
3:55 AM,74.3,74.3,100,30.03,10.0,Calm,Calm,-,N/A,,Clear,0,2013-09-12 08:55:00
4:15 AM,74.3,74.3,100,30.03,10.0,Calm,Calm,-,N/A,,Clear,0,2013-09-12 09:15:00
4:35 AM,74.3,74.3,100,30.03,10.0,NNE,5.8,-,N/A,,Clear,20,2013-09-12 09:35:00
4:55 AM,74.7,74.1,98,30.03,10.0,NNE,5.8,-,N/A,,Clear,30,2013-09-12 09:55:00
5:15 AM,74.5,73.6,97,30.03,10.0,NE,3.5,-,N/A,,Clear,40,2013-09-12 10:15:00
5:35 AM,74.3,73.4,97,30.03,10.0,NNE,4.6,-,N/A,,Clear,30,2013-09-12 10:35:00
5:55 AM,73.9,73.4,98,30.03,10.0,NE,4.6,-,N/A,,Clear,40,2013-09-12 10:55:00
6:00 AM,73.4,73.4,100,30.03,10.0,Variable,4.6,-,N/A,,Clear,0,2013-09-12 11:00:00
6:15 AM,73.8,73.2,98,30.03,10.0,NE,4.6,-,N/A,,Clear,40,2013-09-12 11:15:00
6:35 AM,73.6,72.9,98,30.03,10.0,NE,4.6,-,N/A,,Clear,40,2013-09-12 11:35:00
6:50 AM,73.4,73.4,100,30.04,10.0,Variable,3.5,-,N/A,,Clear,0,2013-09-12 11:50:00
6:55 AM,72.9,72.9,100,30.04,10.0,North,6.9,-,N/A,,Clear,10,2013-09-12 11:55:00
7:50 AM,75.2,71.6,89,30.05,10.0,Variable,4.6,-,N/A,,Clear,0,2013-09-12 12:50:00
8:50 AM,78.8,71.6,78,30.05,10.0,NE,4.6,-,N/A,,Clear,40,2013-09-12 13:50:00
9:50 AM,82.4,71.6,70,30.05,10.0,East,8.1,-,N/A,,Scattered Clouds,80,2013-09-12 14:50:00
10:50 AM,87.8,69.8,55,30.05,10.0,East,10.4,-,N/A,,Scattered Clouds,90,2013-09-12 15:50:00
11:50 AM,89.6,64.4,43,30.05,10.0,East,10.4,17.3,N/A,,Scattered Clouds,90,2013-09-12 16:50:00
12:55 PM,91.4,62.6,38,30.02,10.0,ENE,6.9,-,N/A,,Scattered Clouds,70,2013-09-12 17:55:00
1:58 PM,93.2,62.6,36,29.99,10.0,East,11.5,-,N/A,,Scattered Clouds,100,2013-09-12 18:58:00
2:58 PM,93.2,60.8,34,29.97,10.0,ENE,5.8,-,N/A,,Scattered Clouds,60,2013-09-12 19:58:00
4:58 PM,95.0,57.2,28,29.93,10.0,ESE,8.1,-,N/A,,Scattered Clouds,110,2013-09-12 21:58:00
5:56 PM,91.4,59.0,34,29.92,10.0,SE,11.5,-,N/A,,Scattered Clouds,130,2013-09-12 22:56:00
6:55 PM,87.8,66.2,49,29.92,10.0,SSE,5.8,-,N/A,,Clear,160,2013-09-12 23:55:00
7:47 PM,86.0,71.6,62,29.93,10.0,SSE,5.8,-,N/A,,Clear,160,2013-09-13 00:47:00
8:50 PM,84.2,71.6,66,29.94,10.0,SSW,3.5,-,N/A,,Clear,200,2013-09-13 01:50:00
9:55 PM,82.4,71.6,70,29.95,10.0,SSW,4.6,-,N/A,,Clear,210,2013-09-13 02:55:00
11:15 PM,81.0,72.5,75,29.96,10.0,SW,3.5,-,N/A,,Clear,220,2013-09-13 04:15:00
11:35 PM,78.3,71.8,80,29.95,10.0,Calm,Calm,-,N/A,,Clear,0,2013-09-13 04:35:00
11:55 PM,76.5,74.5,94,29.95,10.0,Calm,Calm,-,N/A,,Clear,0,2013-09-13 04:55:00